Wetterdaten: Dienstag, 25.06.2013
Datum Zeit Temperatur Luftfeuchte Luftdruck Regen Wind Richtung Richtung Taupunkt Windchill Windben
25.06.2013 00:00 8,8 C 96 % 1023,9 hPa 0,0 l/m 7,7 km/h (2 Bft) N 360 8,2 C 6,6 C 4,7 km/h (1 Bft)
25.06.2013 00:05 8,7 C 96 % 1024,2 hPa 0,0 l/m 7,9 km/h (2 Bft) NW 315 8,1 C 6,3 C 12,1 km/h (2 Bft)
25.06.2013 00:10 8,7 C 96 % 1024,2 hPa 0,0 l/m 7,4 km/h (2 Bft) S-SO 157 8,1 C 6,8 C 8,7 km/h (2 Bft)
25.06.2013 00:15 8,6 C 96 % 1024,2 hPa 0,0 l/m 6,6 km/h (2 Bft) SO 135 8,0 C 7,6 C 6,9 km/h (2 Bft)
25.06.2013 00:20 8,6 C 96 % 1024,2 hPa 0,0 l/m 4,5 km/h (1 Bft) S 180 8,0 C 8,2 C 2,3 km/h (1 Bft)
25.06.2013 00:25 8,5 C 96 % 1024,2 hPa 0,7 l/m 3,9 km/h (1 Bft) SO 135 7,9 C 8,4 C 2,4 km/h (1 Bft)
25.06.2013 00:30 8,5 C 96 % 1024,2 hPa 0,0 l/m 3,5 km/h (1 Bft) SO 135 7,9 C 8,4 C 7,4 km/h (2 Bft)
25.06.2013 00:35 8,5 C 96 % 1024,2 hPa 0,0 l/m 3,9 km/h (1 Bft) S-SO 157 7,9 C 8,3 C 2,9 km/h (1 Bft)
25.06.2013 00:40 8,5 C 96 % 1024,2 hPa 0,0 l/m 4,8 km/h (1 Bft) SO 135 7,9 C 8,0 C 5,3 km/h (1 Bft)
25.06.2013 00:45 8,5 C 96 % 1024,1 hPa 0,0 l/m 4,0 km/h (1 Bft) S 180 7,9 C 8,3 C 1,8 km/h (1 Bft)
25.06.2013 00:50 8,5 C 96 % 1024,1 hPa 0,0 l/m 4,2 km/h (1 Bft) O-SO 112 7,9 C 8,2 C 14,0 km/h (3 Bft)
25.06.2013 00:55 8,5 C 96 % 1024,1 hPa 0,0 l/m 4,8 km/h (1 Bft) S 180 7,9 C 8,0 C 6,8 km/h (2 Bft)
25.06.2013 01:00 8,5 C 96 % 1024,1 hPa 0,0 l/m 5,0 km/h (1 Bft) S 180 7,9 C 7,9 C 6,9 km/h (2 Bft)
25.06.2013 01:05 8,5 C 96 % 1024,0 hPa 0,0 l/m 4,3 km/h (1 Bft) S 180 7,9 C 8,3 C 3,4 km/h (1 Bft)
25.06.2013 01:10 8,6 C 96 % 1024,0 hPa 0,0 l/m 4,8 km/h (1 Bft) SW 225 8,0 C 8,1 C 4,2 km/h (1 Bft)
25.06.2013 01:15 8,6 C 96 % 1024,0 hPa 0,0 l/m 4,8 km/h (1 Bft) S-SO 157 8,0 C 8,2 C 4,8 km/h (1 Bft)
25.06.2013 01:20 8,6 C 96 % 1024,0 hPa 0,0 l/m 4,8 km/h (1 Bft) S-SW 202 8,0 C 8,3 C 4,8 km/h (1 Bft)
25.06.2013 01:25 8,6 C 96 % 1024,1 hPa 0,0 l/m 5,0 km/h (1 Bft) S 180 8,0 C 8,3 C 5,0 km/h (1 Bft)
25.06.2013 01:30 8,6 C 96 % 1024,1 hPa 0,0 l/m 6,1 km/h (2 Bft) S 180 8,0 C 7,9 C 14,2 km/h (3 Bft)
25.06.2013 01:35 8,6 C 96 % 1024,1 hPa 0,0 l/m 6,8 km/h (2 Bft) S 180 8,0 C 7,5 C 9,2 km/h (2 Bft)
25.06.2013 01:40 8,5 C 96 % 1024,1 hPa 0,0 l/m 5,5 km/h (1 Bft) N-NW 337 7,9 C 8,2 C 4,7 km/h (1 Bft)
25.06.2013 01:45 8,6 C 96 % 1024,1 hPa 0,0 l/m 5,8 km/h (2 Bft) S-SO 157 8,0 C 8,1 C 7,1 km/h (2 Bft)
25.06.2013 01:50 8,6 C 96 % 1024,1 hPa 0,0 l/m 5,1 km/h (1 Bft) S 180 8,0 C 8,2 C 7,7 km/h (2 Bft)
25.06.2013 01:55 8,6 C 96 % 1024,1 hPa 0,0 l/m 4,7 km/h (1 Bft) S 180 8,0 C 8,4 C 4,8 km/h (1 Bft)
25.06.2013 02:00 8,6 C 96 % 1024,1 hPa 0,0 l/m 4,2 km/h (1 Bft) SO 135 8,0 C 8,6 C 3,2 km/h (1 Bft)
25.06.2013 02:05 8,5 C 96 % 1023,9 hPa 0,0 l/m 4,2 km/h (1 Bft) O-SO 112 7,9 C 8,6 C 8,7 km/h (2 Bft)
25.06.2013 02:10 8,5 C 96 % 1023,9 hPa 0,0 l/m 5,0 km/h (1 Bft) W-SW 247 7,9 C 8,4 C 7,6 km/h (2 Bft)
25.06.2013 02:15 8,5 C 96 % 1023,9 hPa 0,0 l/m 5,1 km/h (1 Bft) SO 135 7,9 C 8,2 C 6,1 km/h (2 Bft)
25.06.2013 02:20 8,5 C 96 % 1023,9 hPa 0,0 l/m 4,3 km/h (1 Bft) SO 135 7,9 C 8,5 C 6,0 km/h (2 Bft)
25.06.2013 02:25 8,4 C 96 % 1023,9 hPa 0,0 l/m 3,9 km/h (1 Bft) O-SO 112 7,8 C 8,7 C 6,4 km/h (2 Bft)
25.06.2013 02:30 8,4 C 96 % 1023,9 hPa 0,0 l/m 3,2 km/h (1 Bft) S 180 7,8 C 8,7 C 4,3 km/h (1 Bft)
25.06.2013 02:35 8,4 C 96 % 1023,9 hPa 0,0 l/m 3,2 km/h (1 Bft) S 180 7,8 C 8,7 C 3,2 km/h (1 Bft)
25.06.2013 02:40 8,4 C 96 % 1023,9 hPa 0,0 l/m 3,1 km/h (1 Bft) O-SO 112 7,8 C 8,6 C 3,1 km/h (1 Bft)
25.06.2013 02:45 8,4 C 96 % 1023,9 hPa 0,0 l/m 2,7 km/h (1 Bft) S 180 7,8 C 8,6 C 3,2 km/h (1 Bft)
25.06.2013 02:50 8,4 C 96 % 1023,9 hPa 0,0 l/m 2,9 km/h (1 Bft) S 180 7,8 C 8,7 C 4,5 km/h (1 Bft)
25.06.2013 02:55 8,4 C 96 % 1023,9 hPa 0,0 l/m 2,7 km/h (1 Bft) O-NO 67 7,8 C 8,7 C 2,1 km/h (1 Bft)
25.06.2013 03:00 8,4 C 96 % 1023,9 hPa 0,0 l/m 2,6 km/h (1 Bft) W-NW 292 7,8 C 8,7 C 3,4 km/h (1 Bft)
25.06.2013 03:05 8,4 C 96 % 1023,9 hPa 0,0 l/m 2,1 km/h (1 Bft) S 180 7,8 C 8,6 C 5,3 km/h (1 Bft)
25.06.2013 03:10 8,4 C 96 % 1023,9 hPa 0,0 l/m 2,3 km/h (1 Bft) NO 45 7,8 C 8,6 C 1,8 km/h (1 Bft)
25.06.2013 03:15 8,4 C 96 % 1023,9 hPa 0,0 l/m 2,1 km/h (1 Bft) SO 135 7,8 C 8,6 C 0,0 km/h (0 Bft)
25.06.2013 03:20 8,4 C 96 % 1023,9 hPa 0,0 l/m 1,0 km/h (0 Bft) SO 135 7,8 C 8,6 C 3,2 km/h (1 Bft)
25.06.2013 03:25 8,4 C 96 % 1023,8 hPa 0,0 l/m 1,0 km/h (0 Bft) S 180 7,8 C 8,6 C 3,4 km/h (1 Bft)
25.06.2013 03:30 8,4 C 96 % 1023,8 hPa 0,0 l/m 1,8 km/h (1 Bft) O-SO 112 7,8 C 8,6 C 0,0 km/h (0 Bft)
25.06.2013 03:35 8,4 C 96 % 1023,8 hPa 0,0 l/m 1,9 km/h (1 Bft) O 90 7,8 C 8,6 C 0,0 km/h (0 Bft)
25.06.2013 03:40 8,4 C 96 % 1023,8 hPa 0,0 l/m 1,1 km/h (1 Bft) S-SO 157 7,8 C 8,6 C 0,0 km/h (0 Bft)
25.06.2013 03:45 8,5 C 96 % 1023,8 hPa 0,0 l/m 0,6 km/h (0 Bft) S 180 7,9 C 8,6 C 0,0 km/h (0 Bft)
25.06.2013 03:50 8,5 C 96 % 1023,8 hPa 0,0 l/m 0,3 km/h (0 Bft) S 180 7,9 C 8,5 C 0,0 km/h (0 Bft)
25.06.2013 03:55 8,5 C 96 % 1023,8 hPa 0,0 l/m 1,3 km/h (1 Bft) SO 135 7,9 C 8,4 C 2,1 km/h (1 Bft)
25.06.2013 04:00 8,4 C 96 % 1023,8 hPa 0,0 l/m 2,4 km/h (1 Bft) S-SO 157 7,8 C 8,4 C 8,2 km/h (2 Bft)
25.06.2013 04:05 8,4 C 96 % 1023,7 hPa 0,0 l/m 3,7 km/h (1 Bft) SO 135 7,8 C 8,4 C 8,0 km/h (2 Bft)
25.06.2013 04:10 8,4 C 96 % 1023,7 hPa 0,0 l/m 5,5 km/h (1 Bft) SO 135 7,8 C 7,8 C 3,2 km/h (1 Bft)
25.06.2013 04:15 8,4 C 96 % 1023,7 hPa 0,0 l/m 5,0 km/h (1 Bft) S-SW 202 7,8 C 7,9 C 3,5 km/h (1 Bft)
25.06.2013 04:20 8,4 C 96 % 1023,7 hPa 0,0 l/m 3,4 km/h (1 Bft) S 180 7,8 C 8,4 C 2,9 km/h (1 Bft)
25.06.2013 04:25 8,4 C 96 % 1023,6 hPa 0,0 l/m 3,2 km/h (1 Bft) S 180 7,8 C 8,4 C 5,6 km/h (1 Bft)
25.06.2013 04:30 8,4 C 96 % 1023,6 hPa 0,0 l/m 4,0 km/h (1 Bft) S 180 7,8 C 8,3 C 6,4 km/h (2 Bft)
25.06.2013 04:35 8,4 C 96 % 1023,6 hPa 0,7 l/m 4,7 km/h (1 Bft) SO 135 7,8 C 8,0 C 3,4 km/h (1 Bft)
25.06.2013 04:40 8,4 C 96 % 1023,6 hPa 0,0 l/m 3,1 km/h (1 Bft) S-SW 202 7,8 C 8,4 C 2,6 km/h (1 Bft)
25.06.2013 04:45 8,3 C 96 % 1023,8 hPa 0,7 l/m 2,3 km/h (1 Bft) O-SO 112 7,7 C 8,3 C 4,3 km/h (1 Bft)
25.06.2013 04:50 8,3 C 96 % 1023,8 hPa 0,0 l/m 3,4 km/h (1 Bft) N-NO 22 7,7 C 8,3 C 4,2 km/h (1 Bft)
25.06.2013 04:55 8,3 C 96 % 1023,8 hPa 0,0 l/m 3,5 km/h (1 Bft) SW 225 7,7 C 8,3 C 3,2 km/h (1 Bft)
25.06.2013 05:00 8,3 C 96 % 1023,8 hPa 0,0 l/m 2,6 km/h (1 Bft) S-SW 202 7,7 C 8,2 C 5,6 km/h (1 Bft)
25.06.2013 05:05 8,3 C 96 % 1023,8 hPa 0,0 l/m 2,7 km/h (1 Bft) SO 135 7,7 C 8,2 C 4,3 km/h (1 Bft)
25.06.2013 05:10 8,3 C 96 % 1023,8 hPa 0,0 l/m 3,2 km/h (1 Bft) S 180 7,7 C 8,2 C 3,5 km/h (1 Bft)
25.06.2013 05:15 8,3 C 96 % 1023,8 hPa 0,0 l/m 3,2 km/h (1 Bft) S 180 7,7 C 8,2 C 1,8 km/h (1 Bft)
25.06.2013 05:20 8,3 C 96 % 1023,8 hPa 0,0 l/m 3,1 km/h (1 Bft) S-SO 157 7,7 C 8,2 C 5,1 km/h (1 Bft)
25.06.2013 05:25 8,3 C 96 % 1023,6 hPa 0,0 l/m 2,7 km/h (1 Bft) S 180 7,7 C 8,2 C 2,9 km/h (1 Bft)
25.06.2013 05:30 8,3 C 96 % 1023,6 hPa 0,0 l/m 3,1 km/h (1 Bft) S 180 7,7 C 8,3 C 4,5 km/h (1 Bft)
25.06.2013 05:35 8,3 C 96 % 1023,6 hPa 0,0 l/m 3,1 km/h (1 Bft) SO 135 7,7 C 8,2 C 2,4 km/h (1 Bft)
25.06.2013 05:40 8,2 C 96 % 1023,6 hPa 0,0 l/m 2,1 km/h (1 Bft) O-SO 112 7,6 C 8,2 C 0,0 km/h (0 Bft)
25.06.2013 05:45 8,2 C 96 % 1023,8 hPa 0,0 l/m 1,4 km/h (1 Bft) SO 135 7,6 C 8,1 C 3,5 km/h (1 Bft)
25.06.2013 05:50 8,2 C 96 % 1023,8 hPa 0,0 l/m 1,6 km/h (1 Bft) NO 45 7,6 C 8,1 C 4,2 km/h (1 Bft)
25.06.2013 05:55 8,3 C 96 % 1023,8 hPa 0,0 l/m 1,9 km/h (1 Bft) S 180 7,7 C 8,1 C 4,7 km/h (1 Bft)
25.06.2013 06:00 8,2 C 96 % 1023,8 hPa 0,0 l/m 1,6 km/h (1 Bft) S-SW 202 7,6 C 8,2 C 0,0 km/h (0 Bft)
25.06.2013 06:05 8,2 C 96 % 1023,7 hPa 0,0 l/m 1,4 km/h (1 Bft) S 180 7,6 C 8,2 C 3,1 km/h (1 Bft)
25.06.2013 06:10 8,3 C 96 % 1023,7 hPa 0,0 l/m 1,9 km/h (1 Bft) SO 135 7,7 C 8,2 C 8,5 km/h (2 Bft)
25.06.2013 06:15 8,3 C 96 % 1023,7 hPa 0,0 l/m 2,6 km/h (1 Bft) S 180 7,7 C 8,2 C 6,1 km/h (2 Bft)
25.06.2013 06:20 8,3 C 96 % 1023,7 hPa 0,0 l/m 3,7 km/h (1 Bft) S 180 7,7 C 8,2 C 3,2 km/h (1 Bft)
25.06.2013 06:25 8,3 C 96 % 1023,8 hPa 0,0 l/m 3,2 km/h (1 Bft) SW 225 7,7 C 8,2 C 0,0 km/h (0 Bft)
25.06.2013 06:30 8,3 C 96 % 1023,8 hPa 0,0 l/m 3,4 km/h (1 Bft) S 180 7,7 C 8,3 C 4,2 km/h (1 Bft)
25.06.2013 06:35 8,4 C 96 % 1023,8 hPa 0,0 l/m 2,9 km/h (1 Bft) S 180 7,8 C 8,3 C 3,4 km/h (1 Bft)
25.06.2013 06:40 8,4 C 96 % 1023,8 hPa 0,0 l/m 2,7 km/h (1 Bft) SO 135 7,8 C 8,3 C 8,4 km/h (2 Bft)
25.06.2013 06:45 8,4 C 96 % 1024,0 hPa 0,0 l/m 3,1 km/h (1 Bft) S-SW 202 7,8 C 8,3 C 3,1 km/h (1 Bft)
25.06.2013 06:50 8,5 C 96 % 1024,0 hPa 0,0 l/m 3,7 km/h (1 Bft) SO 135 7,9 C 8,4 C 2,7 km/h (1 Bft)
25.06.2013 06:55 8,5 C 96 % 1024,0 hPa 0,0 l/m 3,1 km/h (1 Bft) S 180 7,9 C 8,4 C 2,1 km/h (1 Bft)
25.06.2013 07:00 8,6 C 96 % 1024,0 hPa 0,0 l/m 2,4 km/h (1 Bft) S 180 8,0 C 8,4 C 3,9 km/h (1 Bft)
25.06.2013 07:05 8,5 C 96 % 1023,9 hPa 0,0 l/m 2,7 km/h (1 Bft) S 180 7,9 C 8,4 C 7,1 km/h (2 Bft)
25.06.2013 07:10 8,5 C 96 % 1023,9 hPa 0,0 l/m 3,1 km/h (1 Bft) S-SO 157 7,9 C 8,5 C 0,0 km/h (0 Bft)
25.06.2013 07:15 8,7 C 96 % 1023,9 hPa 0,0 l/m 3,4 km/h (1 Bft) O 90 8,1 C 8,6 C 8,0 km/h (2 Bft)
25.06.2013 07:20 8,8 C 96 % 1023,9 hPa 0,0 l/m 2,7 km/h (1 Bft) SO 135 8,2 C 8,8 C 5,3 km/h (1 Bft)
25.06.2013 07:25 8,8 C 96 % 1023,8 hPa 0,0 l/m 2,4 km/h (1 Bft) S-SO 157 8,2 C 9,0 C 3,9 km/h (1 Bft)
25.06.2013 07:30 9,0 C 96 % 1023,8 hPa 0,0 l/m 2,6 km/h (1 Bft) S 180 8,4 C 9,1 C 4,7 km/h (1 Bft)
25.06.2013 07:35 9,1 C 96 % 1023,8 hPa 0,0 l/m 3,4 km/h (1 Bft) O-SO 112 8,5 C 9,3 C 3,7 km/h (1 Bft)
25.06.2013 07:40 9,1 C 96 % 1023,8 hPa 0,0 l/m 4,7 km/h (1 Bft) N-NO 22 8,5 C 9,0 C 6,9 km/h (2 Bft)
25.06.2013 07:45 9,2 C 96 % 1024,3 hPa 0,0 l/m 4,5 km/h (1 Bft) S 180 8,6 C 9,2 C 3,4 km/h (1 Bft)
25.06.2013 07:50 9,2 C 96 % 1024,3 hPa 0,0 l/m 4,0 km/h (1 Bft) S-SO 157 8,6 C 9,6 C 8,4 km/h (2 Bft)
25.06.2013 07:55 9,2 C 96 % 1024,3 hPa 0,0 l/m 3,9 km/h (1 Bft) S-SO 157 8,6 C 9,6 C 8,4 km/h (2 Bft)
25.06.2013 08:00 9,3 C 96 % 1024,3 hPa 0,0 l/m 4,0 km/h (1 Bft) S-SO 157 8,7 C 9,7 C 3,4 km/h (1 Bft)
25.06.2013 08:05 9,3 C 96 % 1024,1 hPa 0,0 l/m 3,9 km/h (1 Bft) S 180 8,7 C 9,8 C 4,5 km/h (1 Bft)
25.06.2013 08:10 9,7 C 96 % 1024,1 hPa 0,0 l/m 3,2 km/h (1 Bft) S 180 9,1 C 10,1 C 4,5 km/h (1 Bft)
25.06.2013 08:15 9,9 C 96 % 1024,1 hPa 0,0 l/m 3,4 km/h (1 Bft) S-SO 157 9,3 C 10,3 C 4,3 km/h (1 Bft)
25.06.2013 08:20 10,1 C 96 % 1024,1 hPa 0,0 l/m 5,1 km/h (1 Bft) S 180 9,5 C 10,4 C 6,8 km/h (2 Bft)
25.06.2013 08:25 10,2 C 96 % 1024,2 hPa 0,0 l/m 6,0 km/h (2 Bft) W-NW 292 9,6 C 10,3 C 3,9 km/h (1 Bft)
25.06.2013 08:30 10,6 C 96 % 1024,2 hPa 0,0 l/m 6,0 km/h (2 Bft) S 180 10,0 C 10,9 C 4,7 km/h (1 Bft)
25.06.2013 08:35 10,7 C 96 % 1024,2 hPa 0,0 l/m 5,1 km/h (1 Bft) W-SW 247 10,1 C 11,6 C 4,5 km/h (1 Bft)
25.06.2013 08:40 10,4 C 96 % 1024,2 hPa 0,0 l/m 4,5 km/h (1 Bft) W-SW 247 9,8 C 11,6 C 4,8 km/h (1 Bft)
25.06.2013 08:45 10,5 C 96 % 1024,4 hPa 0,0 l/m 4,2 km/h (1 Bft) S 180 9,9 C 11,5 C 4,7 km/h (1 Bft)
25.06.2013 08:50 10,6 C 96 % 1024,4 hPa 0,0 l/m 5,1 km/h (1 Bft) S-SO 157 10,0 C 11,4 C 4,8 km/h (1 Bft)
25.06.2013 08:55 10,9 C 96 % 1024,4 hPa 0,0 l/m 5,5 km/h (1 Bft) S-SO 157 10,3 C 11,4 C 7,1 km/h (2 Bft)
25.06.2013 09:00 10,5 C 95 % 1024,4 hPa 0,0 l/m 5,0 km/h (1 Bft) SO 135 9,7 C 11,6 C 5,6 km/h (1 Bft)
25.06.2013 09:05 10,3 C 95 % 1024,6 hPa 0,0 l/m 5,0 km/h (1 Bft) S-SW 202 9,5 C 11,4 C 6,1 km/h (2 Bft)
25.06.2013 09:10 10,2 C 95 % 1024,6 hPa 0,0 l/m 4,7 km/h (1 Bft) SW 225 9,4 C 10,9 C 6,8 km/h (2 Bft)
25.06.2013 09:15 10,4 C 95 % 1024,6 hPa 0,0 l/m 4,5 km/h (1 Bft) S-SW 202 9,6 C 11,1 C 6,9 km/h (2 Bft)
25.06.2013 09:20 10,3 C 95 % 1024,6 hPa 0,0 l/m 4,8 km/h (1 Bft) W-SW 247 9,5 C 11,1 C 7,2 km/h (2 Bft)
25.06.2013 09:25 10,1 C 94 % 1024,4 hPa 0,0 l/m 6,0 km/h (2 Bft) S-SW 202 9,2 C 10,5 C 6,4 km/h (2 Bft)
25.06.2013 09:30 10,1 C 94 % 1024,4 hPa 0,0 l/m 5,3 km/h (1 Bft) S-SW 202 9,2 C 10,3 C 4,3 km/h (1 Bft)
25.06.2013 09:35 9,9 C 94 % 1024,4 hPa 0,0 l/m 4,7 km/h (1 Bft) S-SO 157 9,0 C 10,1 C 5,5 km/h (1 Bft)
25.06.2013 09:40 9,5 C 93 % 1024,4 hPa 0,0 l/m 5,3 km/h (1 Bft) SW 225 8,4 C 9,2 C 14,8 km/h (3 Bft)
25.06.2013 09:45 9,4 C 93 % 1024,5 hPa 0,7 l/m 5,6 km/h (1 Bft) S 180 8,3 C 8,7 C 9,8 km/h (2 Bft)
25.06.2013 09:50 9,5 C 93 % 1024,5 hPa 0,0 l/m 5,5 km/h (1 Bft) S-SW 202 8,4 C 8,7 C 7,1 km/h (2 Bft)
25.06.2013 09:55 9,9 C 93 % 1024,5 hPa 0,0 l/m 5,8 km/h (2 Bft) S 180 8,8 C 8,8 C 6,4 km/h (2 Bft)
25.06.2013 10:00 10,0 C 93 % 1024,5 hPa 0,0 l/m 5,6 km/h (1 Bft) S 180 8,9 C 9,6 C 7,1 km/h (2 Bft)
25.06.2013 10:05 9,5 C 92 % 1024,9 hPa 0,0 l/m 6,0 km/h (2 Bft) O-SO 112 8,3 C 9,3 C 8,0 km/h (2 Bft)
25.06.2013 10:10 9,5 C 92 % 1024,9 hPa 0,0 l/m 6,6 km/h (2 Bft) S 180 8,3 C 8,9 C 10,0 km/h (2 Bft)
25.06.2013 10:15 9,4 C 91 % 1024,9 hPa 0,0 l/m 6,4 km/h (2 Bft) O-SO 112 8,0 C 9,1 C 6,3 km/h (2 Bft)
25.06.2013 10:20 9,5 C 91 % 1024,9 hPa 0,0 l/m 5,8 km/h (2 Bft) S 180 8,1 C 9,3 C 7,2 km/h (2 Bft)
25.06.2013 10:25 9,3 C 91 % 1024,9 hPa 0,0 l/m 5,5 km/h (1 Bft) S-SO 157 7,9 C 9,3 C 4,3 km/h (1 Bft)
25.06.2013 10:30 9,1 C 92 % 1024,9 hPa 0,0 l/m 4,2 km/h (1 Bft) S 180 7,9 C 9,7 C 3,5 km/h (1 Bft)
25.06.2013 10:35 9,0 C 92 % 1024,9 hPa 0,0 l/m 3,4 km/h (1 Bft) S 180 7,8 C 9,6 C 5,1 km/h (1 Bft)
25.06.2013 10:40 8,8 C 92 % 1024,9 hPa 0,0 l/m 4,2 km/h (1 Bft) S 180 7,6 C 9,2 C 5,8 km/h (2 Bft)
25.06.2013 10:45 8,8 C 92 % 1024,6 hPa 0,0 l/m 4,2 km/h (1 Bft) S-SO 157 7,6 C 8,8 C 3,2 km/h (1 Bft)
25.06.2013 10:50 8,7 C 92 % 1024,6 hPa 0,0 l/m 4,2 km/h (1 Bft) O 90 7,5 C 8,6 C 2,4 km/h (1 Bft)
25.06.2013 10:55 9,0 C 92 % 1024,6 hPa 0,0 l/m 3,9 km/h (1 Bft) O-SO 112 7,8 C 8,8 C 4,3 km/h (1 Bft)
25.06.2013 11:00 9,4 C 92 % 1024,6 hPa 0,0 l/m 3,7 km/h (1 Bft) S 180 8,2 C 9,0 C 4,7 km/h (1 Bft)
25.06.2013 11:05 9,8 C 93 % 1024,9 hPa 0,0 l/m 4,3 km/h (1 Bft) S-SW 202 8,7 C 9,2 C 4,7 km/h (1 Bft)
25.06.2013 11:10 10,6 C 93 % 1024,9 hPa 0,0 l/m 4,3 km/h (1 Bft) SO 135 9,5 C 9,8 C 6,9 km/h (2 Bft)
25.06.2013 11:15 11,2 C 92 % 1024,9 hPa 0,0 l/m 4,2 km/h (1 Bft) SO 135 9,9 C 10,6 C 1,9 km/h (1 Bft)
25.06.2013 11:20 12,0 C 91 % 1024,9 hPa 0,7 l/m 4,8 km/h (1 Bft) S-SO 157 10,6 C 12,0 C 5,8 km/h (2 Bft)
25.06.2013 11:25 12,9 C 89 % 1025,2 hPa 0,0 l/m 4,8 km/h (1 Bft) S 180 11,1 C 13,0 C 11,7 km/h (2 Bft)
25.06.2013 11:30 13,9 C 86 % 1025,2 hPa 0,0 l/m 5,8 km/h (2 Bft) S-SO 157 11,6 C 13,9 C 15,0 km/h (3 Bft)
25.06.2013 11:35 14,1 C 83 % 1025,2 hPa 0,0 l/m 6,4 km/h (2 Bft) S-SO 157 11,3 C 14,6 C 9,0 km/h (2 Bft)
25.06.2013 11:40 12,7 C 79 % 1025,2 hPa 0,0 l/m 7,9 km/h (2 Bft) S-SO 157 9,2 C 13,8 C 6,6 km/h (2 Bft)
25.06.2013 11:45 12,7 C 84 % 1025,3 hPa 0,0 l/m 7,4 km/h (2 Bft) SO 135 10,1 C 13,5 C 5,6 km/h (1 Bft)
25.06.2013 11:50 12,6 C 83 % 1025,3 hPa 0,0 l/m 6,1 km/h (2 Bft) S-SO 157 9,8 C 14,0 C 9,3 km/h (2 Bft)
25.06.2013 11:55 12,5 C 84 % 1025,3 hPa 0,0 l/m 6,0 km/h (2 Bft) O-SO 112 9,9 C 13,9 C 11,3 km/h (2 Bft)
25.06.2013 12:00 13,0 C 82 % 1025,3 hPa 0,0 l/m 6,1 km/h (2 Bft) S-SO 157 10,0 C 13,9 C 11,4 km/h (2 Bft)
25.06.2013 12:05 13,4 C 80 % 1025,6 hPa 0,0 l/m 6,4 km/h (2 Bft) S-SW 202 10,0 C 14,5 C 5,5 km/h (1 Bft)
25.06.2013 12:10 14,1 C 79 % 1025,6 hPa 0,0 l/m 6,6 km/h (2 Bft) S-SW 202 10,5 C 15,2 C 17,4 km/h (3 Bft)
25.06.2013 12:15 13,2 C 77 % 1025,6 hPa 0,0 l/m 6,3 km/h (2 Bft) S 180 9,3 C 15,3 C 13,5 km/h (3 Bft)
25.06.2013 12:20 12,6 C 79 % 1025,6 hPa 0,0 l/m 7,1 km/h (2 Bft) NO 45 9,1 C 14,2 C 6,6 km/h (2 Bft)
25.06.2013 12:25 12,2 C 80 % 1025,3 hPa 0,0 l/m 7,4 km/h (2 Bft) S 180 8,9 C 13,1 C 6,1 km/h (2 Bft)
25.06.2013 12:30 11,2 C 82 % 1025,3 hPa 0,0 l/m 6,3 km/h (2 Bft) S-SO 157 8,2 C 12,6 C 4,0 km/h (1 Bft)
25.06.2013 12:35 11,0 C 84 % 1025,3 hPa 0,0 l/m 5,8 km/h (2 Bft) S-SO 157 8,4 C 12,2 C 15,9 km/h (3 Bft)
25.06.2013 12:40 10,9 C 86 % 1025,3 hPa 0,0 l/m 5,1 km/h (1 Bft) S 180 8,7 C 11,7 C 6,6 km/h (2 Bft)
25.06.2013 12:45 10,6 C 84 % 1025,0 hPa 0,0 l/m 7,1 km/h (2 Bft) S 180 8,0 C 10,6 C 14,2 km/h (3 Bft)
25.06.2013 12:50 11,0 C 84 % 1025,0 hPa 0,0 l/m 7,7 km/h (2 Bft) S-SO 157 8,4 C 9,9 C 11,6 km/h (2 Bft)
25.06.2013 12:55 11,4 C 85 % 1025,0 hPa 0,0 l/m 6,3 km/h (2 Bft) W-NW 292 9,0 C 11,6 C 2,6 km/h (1 Bft)
25.06.2013 13:00 12,0 C 83 % 1025,0 hPa 0,0 l/m 7,1 km/h (2 Bft) SO 135 9,2 C 11,8 C 13,4 km/h (3 Bft)
25.06.2013 13:05 12,4 C 83 % 1025,3 hPa 0,0 l/m 7,2 km/h (2 Bft) S 180 9,6 C 12,2 C 11,9 km/h (2 Bft)
25.06.2013 13:10 12,6 C 82 % 1025,3 hPa 0,0 l/m 8,0 km/h (2 Bft) S 180 9,6 C 11,8 C 9,2 km/h (2 Bft)
25.06.2013 13:15 12,4 C 82 % 1025,3 hPa 0,0 l/m 7,7 km/h (2 Bft) S-SW 202 9,4 C 12,0 C 11,4 km/h (2 Bft)
25.06.2013 13:20 11,6 C 82 % 1025,3 hPa 0,0 l/m 8,2 km/h (2 Bft) S-SO 157 8,6 C 11,0 C 18,3 km/h (3 Bft)
25.06.2013 13:25 11,3 C 84 % 1025,9 hPa 0,0 l/m 8,2 km/h (2 Bft) S 180 8,7 C 10,4 C 8,9 km/h (2 Bft)
25.06.2013 13:30 10,9 C 83 % 1025,9 hPa 0,0 l/m 7,1 km/h (2 Bft) SO 135 8,1 C 10,6 C 5,8 km/h (2 Bft)
25.06.2013 13:35 10,8 C 83 % 1025,9 hPa 0,0 l/m 6,8 km/h (2 Bft) S 180 8,0 C 10,1 C 10,0 km/h (2 Bft)
25.06.2013 13:40 11,1 C 85 % 1025,9 hPa 0,0 l/m 5,1 km/h (1 Bft) S 180 8,7 C 10,6 C 5,1 km/h (1 Bft)
25.06.2013 13:45 11,3 C 85 % 1025,2 hPa 0,0 l/m 4,8 km/h (1 Bft) S-SW 202 8,9 C 10,8 C 3,5 km/h (1 Bft)
25.06.2013 13:50 11,8 C 84 % 1025,2 hPa 0,0 l/m 3,4 km/h (1 Bft) S-SW 202 9,2 C 11,7 C 2,7 km/h (1 Bft)
25.06.2013 13:55 12,1 C 85 % 1025,2 hPa 0,0 l/m 1,6 km/h (1 Bft) S-SW 202 9,7 C 12,3 C 2,1 km/h (1 Bft)
25.06.2013 14:00 11,9 C 86 % 1025,2 hPa 0,0 l/m 1,6 km/h (1 Bft) S-SO 157 9,6 C 12,5 C 3,1 km/h (1 Bft)
25.06.2013 14:05 11,5 C 85 % 1025,4 hPa 0,0 l/m 2,4 km/h (1 Bft) SO 135 9,1 C 12,4 C 5,0 km/h (1 Bft)
25.06.2013 14:10 11,1 C 80 % 1025,4 hPa 0,0 l/m 4,3 km/h (1 Bft) S-SO 157 7,8 C 12,0 C 6,4 km/h (2 Bft)
25.06.2013 14:15 11,4 C 83 % 1025,4 hPa 0,0 l/m 4,8 km/h (1 Bft) S 180 8,6 C 12,0 C 6,4 km/h (2 Bft)
25.06.2013 14:20 11,6 C 81 % 1025,4 hPa 0,0 l/m 5,0 km/h (1 Bft) S 180 8,5 C 12,2 C 8,7 km/h (2 Bft)
25.06.2013 14:25 11,8 C 81 % 1025,5 hPa 0,0 l/m 5,5 km/h (1 Bft) S 180 8,6 C 12,2 C 10,3 km/h (2 Bft)
25.06.2013 14:30 12,1 C 79 % 1025,5 hPa 0,0 l/m 6,0 km/h (2 Bft) W-SW 247 8,6 C 12,4 C 4,3 km/h (1 Bft)
25.06.2013 14:35 12,5 C 78 % 1025,5 hPa 0,0 l/m 6,3 km/h (2 Bft) S 180 8,8 C 12,9 C 6,4 km/h (2 Bft)
25.06.2013 14:40 12,9 C 76 % 1025,5 hPa 0,0 l/m 6,0 km/h (2 Bft) S-SW 202 8,8 C 13,6 C 5,3 km/h (1 Bft)
25.06.2013 14:45 13,2 C 75 % 1025,6 hPa 0,0 l/m 6,1 km/h (2 Bft) O-NO 67 8,9 C 14,0 C 5,5 km/h (1 Bft)
25.06.2013 14:50 13,1 C 73 % 1025,6 hPa 0,0 l/m 5,3 km/h (1 Bft) S-SW 202 8,4 C 14,2 C 4,0 km/h (1 Bft)
25.06.2013 14:55 13,2 C 75 % 1025,6 hPa 0,0 l/m 5,0 km/h (1 Bft) SO 135 8,9 C 14,2 C 4,3 km/h (1 Bft)
25.06.2013 15:00 13,2 C 72 % 1025,6 hPa 0,0 l/m 6,3 km/h (2 Bft) W 270 8,3 C 14,0 C 3,4 km/h (1 Bft)
25.06.2013 15:05 13,5 C 71 % 1025,6 hPa 0,0 l/m 6,9 km/h (2 Bft) S 180 8,3 C 13,8 C 8,7 km/h (2 Bft)
25.06.2013 15:10 13,9 C 70 % 1025,6 hPa 0,0 l/m 6,0 km/h (2 Bft) SO 135 8,5 C 14,5 C 10,9 km/h (2 Bft)
25.06.2013 15:15 13,9 C 69 % 1025,6 hPa 0,0 l/m 5,6 km/h (1 Bft) S 180 8,3 C 14,7 C 6,3 km/h (2 Bft)
25.06.2013 15:20 14,2 C 68 % 1025,6 hPa 0,0 l/m 5,1 km/h (1 Bft) S-SW 202 8,4 C 14,9 C 6,0 km/h (2 Bft)
25.06.2013 15:25 14,8 C 61 % 1025,6 hPa 0,0 l/m 5,3 km/h (1 Bft) S 180 7,4 C 15,1 C 7,4 km/h (2 Bft)
25.06.2013 15:30 15,7 C 59 % 1025,6 hPa 0,0 l/m 6,1 km/h (2 Bft) S 180 7,7 C 16,2 C 6,8 km/h (2 Bft)
25.06.2013 15:35 15,9 C 54 % 1025,6 hPa 0,0 l/m 6,9 km/h (2 Bft) S 180 6,6 C 16,5 C 14,5 km/h (3 Bft)
25.06.2013 15:40 16,2 C 53 % 1025,6 hPa 0,0 l/m 7,6 km/h (2 Bft) S 180 6,6 C 16,4 C 12,1 km/h (2 Bft)
25.06.2013 15:45 16,0 C 52 % 1025,7 hPa 0,0 l/m 7,7 km/h (2 Bft) S 180 6,2 C 17,1 C 12,9 km/h (3 Bft)
25.06.2013 15:50 15,2 C 54 % 1025,7 hPa 0,0 l/m 8,9 km/h (2 Bft) S-SO 157 6,0 C 15,9 C 19,2 km/h (3 Bft)
25.06.2013 15:55 15,1 C 58 % 1025,7 hPa 0,0 l/m 9,2 km/h (2 Bft) S-SO 157 6,9 C 15,1 C 12,1 km/h (2 Bft)
25.06.2013 16:00 14,9 C 59 % 1025,7 hPa 0,0 l/m 8,7 km/h (2 Bft) W-SW 247 7,0 C 14,6 C 5,5 km/h (1 Bft)
25.06.2013 16:05 14,1 C 57 % 1026,1 hPa 0,0 l/m 8,7 km/h (2 Bft) S-SW 202 5,7 C 13,8 C 14,2 km/h (3 Bft)
25.06.2013 16:10 12,7 C 61 % 1026,1 hPa 0,0 l/m 8,7 km/h (2 Bft) S 180 5,4 C 11,9 C 7,9 km/h (2 Bft)
25.06.2013 16:15 11,5 C 64 % 1026,1 hPa 0,0 l/m 8,7 km/h (2 Bft) S 180 4,9 C 10,7 C 14,3 km/h (3 Bft)
25.06.2013 16:20 10,8 C 69 % 1026,1 hPa 0,0 l/m 7,2 km/h (2 Bft) W 270 5,3 C 10,3 C 9,2 km/h (2 Bft)
25.06.2013 16:25 10,6 C 70 % 1025,8 hPa 0,0 l/m 6,8 km/h (2 Bft) S 180 5,4 C 10,1 C 8,4 km/h (2 Bft)
25.06.2013 16:30 10,5 C 73 % 1025,8 hPa 0,0 l/m 5,1 km/h (1 Bft) S 180 5,9 C 10,4 C 6,9 km/h (2 Bft)
25.06.2013 16:35 10,5 C 73 % 1025,8 hPa 0,0 l/m 5,0 km/h (1 Bft) S-SW 202 5,9 C 10,1 C 3,7 km/h (1 Bft)
25.06.2013 16:40 10,5 C 74 % 1025,8 hPa 0,0 l/m 5,3 km/h (1 Bft) SO 135 6,1 C 9,9 C 2,1 km/h (1 Bft)
25.06.2013 16:45 10,6 C 74 % 1025,8 hPa 0,0 l/m 4,7 km/h (1 Bft) S-SW 202 6,2 C 10,4 C 4,8 km/h (1 Bft)
25.06.2013 16:50 10,8 C 74 % 1025,8 hPa 0,0 l/m 4,2 km/h (1 Bft) W-SW 247 6,4 C 10,7 C 7,6 km/h (2 Bft)
25.06.2013 16:55 10,9 C 74 % 1025,8 hPa 0,0 l/m 4,3 km/h (1 Bft) W-SW 247 6,5 C 10,8 C 5,8 km/h (2 Bft)
25.06.2013 17:00 10,8 C 74 % 1025,8 hPa 0,0 l/m 4,7 km/h (1 Bft) S-SW 202 6,4 C 10,8 C 4,3 km/h (1 Bft)
25.06.2013 17:05 10,8 C 75 % 1025,8 hPa 0,0 l/m 4,2 km/h (1 Bft) W-SW 247 6,5 C 10,9 C 5,0 km/h (1 Bft)
25.06.2013 17:10 10,9 C 76 % 1025,8 hPa 0,0 l/m 3,5 km/h (1 Bft) SO 135 6,8 C 10,9 C 4,8 km/h (1 Bft)
25.06.2013 17:15 10,8 C 75 % 1025,8 hPa 0,0 l/m 4,2 km/h (1 Bft) S 180 6,5 C 11,0 C 2,9 km/h (1 Bft)
25.06.2013 17:20 10,8 C 73 % 1025,8 hPa 0,0 l/m 5,6 km/h (1 Bft) SO 135 6,2 C 10,6 C 13,8 km/h (3 Bft)
25.06.2013 17:25 10,8 C 72 % 1025,6 hPa 0,0 l/m 6,4 km/h (2 Bft) S-SO 157 6,0 C 10,3 C 9,0 km/h (2 Bft)
25.06.2013 17:30 10,8 C 73 % 1025,6 hPa 0,0 l/m 6,8 km/h (2 Bft) S 180 6,2 C 9,9 C 6,6 km/h (2 Bft)
25.06.2013 17:35 10,8 C 75 % 1025,6 hPa 0,0 l/m 5,3 km/h (1 Bft) S-SO 157 6,5 C 10,1 C 7,4 km/h (2 Bft)
25.06.2013 17:40 10,7 C 75 % 1025,6 hPa 0,0 l/m 4,7 km/h (1 Bft) SW 225 6,5 C 9,9 C 4,3 km/h (1 Bft)
25.06.2013 17:45 10,7 C 75 % 1025,6 hPa 0,0 l/m 5,1 km/h (1 Bft) S-SO 157 6,5 C 9,8 C 5,8 km/h (2 Bft)
25.06.2013 17:50 11,1 C 76 % 1025,6 hPa 0,0 l/m 4,5 km/h (1 Bft) S 180 7,0 C 10,2 C 3,9 km/h (1 Bft)
25.06.2013 17:55 11,1 C 76 % 1025,6 hPa 0,0 l/m 4,8 km/h (1 Bft) O 90 7,0 C 10,3 C 6,6 km/h (2 Bft)
25.06.2013 18:00 11,0 C 76 % 1025,6 hPa 0,0 l/m 4,5 km/h (1 Bft) S-SW 202 6,9 C 10,6 C 3,7 km/h (1 Bft)
25.06.2013 18:05 10,8 C 76 % 1025,6 hPa 0,0 l/m 4,5 km/h (1 Bft) S 180 6,7 C 10,4 C 5,1 km/h (1 Bft)
25.06.2013 18:10 10,7 C 76 % 1025,6 hPa 0,0 l/m 5,1 km/h (1 Bft) SO 135 6,6 C 10,3 C 5,5 km/h (1 Bft)
25.06.2013 18:15 10,7 C 77 % 1025,6 hPa 0,0 l/m 4,5 km/h (1 Bft) N 360 6,8 C 10,4 C 3,7 km/h (1 Bft)
25.06.2013 18:20 10,7 C 78 % 1025,6 hPa 0,0 l/m 3,7 km/h (1 Bft) S 180 7,0 C 10,6 C 6,3 km/h (2 Bft)
25.06.2013 18:25 10,7 C 78 % 1025,7 hPa 0,0 l/m 3,9 km/h (1 Bft) SO 135 7,0 C 10,6 C 1,9 km/h (1 Bft)
25.06.2013 18:30 10,7 C 78 % 1025,7 hPa 0,0 l/m 4,0 km/h (1 Bft) S 180 7,0 C 10,6 C 6,4 km/h (2 Bft)
25.06.2013 18:35 10,5 C 78 % 1025,7 hPa 0,0 l/m 3,9 km/h (1 Bft) S-SO 157 6,8 C 10,6 C 6,0 km/h (2 Bft)
25.06.2013 18:40 10,4 C 77 % 1025,7 hPa 0,0 l/m 5,1 km/h (1 Bft) W 270 6,5 C 10,2 C 4,8 km/h (1 Bft)
25.06.2013 18:45 10,3 C 78 % 1025,7 hPa 0,0 l/m 5,1 km/h (1 Bft) S 180 6,6 C 10,0 C 5,1 km/h (1 Bft)
25.06.2013 18:50 10,2 C 78 % 1025,7 hPa 0,0 l/m 5,3 km/h (1 Bft) SO 135 6,5 C 9,8 C 6,8 km/h (2 Bft)
25.06.2013 18:55 10,1 C 78 % 1025,7 hPa 0,0 l/m 5,0 km/h (1 Bft) SO 135 6,4 C 9,9 C 7,4 km/h (2 Bft)
25.06.2013 19:00 10,2 C 78 % 1025,7 hPa 0,0 l/m 5,0 km/h (1 Bft) S 180 6,5 C 9,7 C 7,2 km/h (2 Bft)
25.06.2013 19:05 10,2 C 79 % 1025,7 hPa 0,0 l/m 4,8 km/h (1 Bft) SO 135 6,7 C 9,9 C 2,3 km/h (1 Bft)
25.06.2013 19:10 10,3 C 79 % 1025,7 hPa 0,0 l/m 4,2 km/h (1 Bft) S-SW 202 6,8 C 10,1 C 2,9 km/h (1 Bft)
25.06.2013 19:15 10,3 C 79 % 1025,7 hPa 0,0 l/m 3,5 km/h (1 Bft) S-SW 202 6,8 C 10,2 C 2,1 km/h (1 Bft)
25.06.2013 19:20 10,3 C 79 % 1025,7 hPa 0,0 l/m 3,4 km/h (1 Bft) S 180 6,8 C 10,2 C 5,1 km/h (1 Bft)
25.06.2013 19:25 10,2 C 79 % 1025,8 hPa 0,0 l/m 3,5 km/h (1 Bft) S-SO 157 6,7 C 10,2 C 4,2 km/h (1 Bft)
25.06.2013 19:30 10,1 C 79 % 1025,8 hPa 0,0 l/m 3,4 km/h (1 Bft) SO 135 6,6 C 10,1 C 3,5 km/h (1 Bft)
25.06.2013 19:35 10,1 C 79 % 1025,8 hPa 0,0 l/m 3,5 km/h (1 Bft) S 180 6,6 C 10,1 C 5,6 km/h (1 Bft)
25.06.2013 19:40 10,0 C 79 % 1025,8 hPa 0,0 l/m 3,4 km/h (1 Bft) S 180 6,5 C 10,0 C 3,2 km/h (1 Bft)
25.06.2013 19:45 9,9 C 80 % 1025,8 hPa 0,0 l/m 2,1 km/h (1 Bft) O 90 6,6 C 10,0 C 0,0 km/h (0 Bft)
25.06.2013 19:50 9,9 C 80 % 1025,8 hPa 0,0 l/m 0,8 km/h (0 Bft) S 180 6,6 C 9,8 C 0,0 km/h (0 Bft)
25.06.2013 19:55 9,9 C 80 % 1025,8 hPa 0,0 l/m 1,1 km/h (1 Bft) SO 135 6,6 C 9,8 C 3,7 km/h (1 Bft)
25.06.2013 20:00 10,0 C 80 % 1025,8 hPa 0,0 l/m 1,4 km/h (1 Bft) O-SO 112 6,7 C 9,8 C 3,9 km/h (1 Bft)
25.06.2013 20:05 10,0 C 80 % 1025,8 hPa 0,0 l/m 1,4 km/h (1 Bft) SO 135 6,7 C 9,9 C 3,4 km/h (1 Bft)
25.06.2013 20:10 10,0 C 80 % 1025,8 hPa 0,0 l/m 1,1 km/h (1 Bft) SO 135 6,7 C 10,0 C 0,0 km/h (0 Bft)
25.06.2013 20:15 9,9 C 80 % 1025,8 hPa 0,0 l/m 1,0 km/h (0 Bft) S-SO 157 6,6 C 10,0 C 0,0 km/h (0 Bft)
25.06.2013 20:20 9,9 C 79 % 1025,8 hPa 0,0 l/m 1,6 km/h (1 Bft) O 90 6,4 C 10,0 C 2,6 km/h (1 Bft)
25.06.2013 20:25 9,9 C 79 % 1026,1 hPa 0,0 l/m 1,9 km/h (1 Bft) SO 135 6,4 C 10,0 C 0,0 km/h (0 Bft)
25.06.2013 20:30 9,8 C 80 % 1026,1 hPa 0,0 l/m 1,9 km/h (1 Bft) S 180 6,5 C 9,8 C 3,1 km/h (1 Bft)
25.06.2013 20:35 9,7 C 80 % 1026,1 hPa 0,0 l/m 1,8 km/h (1 Bft) O-SO 112 6,4 C 9,7 C 3,4 km/h (1 Bft)
25.06.2013 20:40 9,7 C 80 % 1026,1 hPa 0,0 l/m 1,1 km/h (1 Bft) S-SO 157 6,4 C 9,6 C 1,6 km/h (1 Bft)
25.06.2013 20:45 9,6 C 80 % 1026,0 hPa 0,0 l/m 2,3 km/h (1 Bft) O-SO 112 6,3 C 9,6 C 3,1 km/h (1 Bft)
25.06.2013 20:50 9,5 C 80 % 1026,0 hPa 0,0 l/m 2,7 km/h (1 Bft) W-SW 247 6,2 C 9,6 C 4,2 km/h (1 Bft)
25.06.2013 20:55 9,5 C 80 % 1026,0 hPa 0,0 l/m 2,3 km/h (1 Bft) O-NO 67 6,2 C 9,5 C 5,0 km/h (1 Bft)
25.06.2013 21:00 9,4 C 81 % 1026,0 hPa 0,0 l/m 2,1 km/h (1 Bft) O 90 6,3 C 9,4 C 3,5 km/h (1 Bft)
25.06.2013 21:05 9,4 C 81 % 1025,9 hPa 0,0 l/m 2,3 km/h (1 Bft) SO 135 6,3 C 9,3 C 2,4 km/h (1 Bft)
25.06.2013 21:10 9,3 C 81 % 1025,9 hPa 0,0 l/m 2,9 km/h (1 Bft) O 90 6,2 C 9,3 C 0,0 km/h (0 Bft)
25.06.2013 21:15 9,3 C 82 % 1025,9 hPa 0,0 l/m 3,4 km/h (1 Bft) S-SW 202 6,4 C 9,2 C 2,9 km/h (1 Bft)
25.06.2013 21:20 9,2 C 82 % 1025,9 hPa 0,0 l/m 2,9 km/h (1 Bft) O-SO 112 6,3 C 9,0 C 4,2 km/h (1 Bft)
25.06.2013 21:25 9,1 C 82 % 1025,9 hPa 0,0 l/m 2,3 km/h (1 Bft) S 180 6,2 C 8,9 C 1,9 km/h (1 Bft)
25.06.2013 21:30 9,0 C 82 % 1025,9 hPa 0,0 l/m 2,3 km/h (1 Bft) S-SW 202 6,1 C 8,7 C 0,0 km/h (0 Bft)
25.06.2013 21:35 8,9 C 83 % 1025,9 hPa 0,0 l/m 2,3 km/h (1 Bft) S-SO 157 6,2 C 8,6 C 2,9 km/h (1 Bft)
25.06.2013 21:40 8,8 C 84 % 1025,9 hPa 0,0 l/m 2,7 km/h (1 Bft) S 180 6,2 C 8,5 C 8,0 km/h (2 Bft)
25.06.2013 21:45 8,9 C 84 % 1026,2 hPa 0,0 l/m 3,4 km/h (1 Bft) S 180 6,3 C 8,6 C 4,8 km/h (1 Bft)
25.06.2013 21:50 8,8 C 84 % 1026,2 hPa 0,0 l/m 2,9 km/h (1 Bft) O-SO 112 6,2 C 8,6 C 0,0 km/h (0 Bft)
25.06.2013 21:55 8,9 C 84 % 1026,2 hPa 0,0 l/m 1,9 km/h (1 Bft) S-SW 202 6,3 C 8,7 C 2,4 km/h (1 Bft)
25.06.2013 22:00 8,9 C 84 % 1026,2 hPa 0,0 l/m 1,4 km/h (1 Bft) S 180 6,3 C 8,7 C 3,4 km/h (1 Bft)
25.06.2013 22:05 8,9 C 84 % 1026,4 hPa 0,0 l/m 1,9 km/h (1 Bft) S-SO 157 6,3 C 8,7 C 3,2 km/h (1 Bft)
25.06.2013 22:10 8,9 C 84 % 1026,4 hPa 0,0 l/m 2,7 km/h (1 Bft) O 90 6,3 C 8,7 C 0,0 km/h (0 Bft)
25.06.2013 22:15 8,8 C 84 % 1026,4 hPa 0,0 l/m 2,3 km/h (1 Bft) O-SO 112 6,2 C 8,7 C 2,4 km/h (1 Bft)
25.06.2013 22:20 8,8 C 84 % 1026,4 hPa 0,0 l/m 1,3 km/h (1 Bft) N 360 6,2 C 8,7 C 0,0 km/h (0 Bft)
25.06.2013 22:25 8,9 C 84 % 1026,6 hPa 0,0 l/m 1,4 km/h (1 Bft) SO 135 6,3 C 8,7 C 7,1 km/h (2 Bft)
25.06.2013 22:30 8,9 C 84 % 1026,6 hPa 0,0 l/m 2,1 km/h (1 Bft) S-SO 157 6,3 C 8,8 C 1,6 km/h (1 Bft)
25.06.2013 22:35 8,9 C 84 % 1026,6 hPa 0,0 l/m 2,7 km/h (1 Bft) S 180 6,3 C 8,9 C 4,7 km/h (1 Bft)
25.06.2013 22:40 8,9 C 84 % 1026,6 hPa 0,0 l/m 2,7 km/h (1 Bft) SO 135 6,3 C 8,9 C 5,8 km/h (2 Bft)
25.06.2013 22:45 8,9 C 84 % 1026,3 hPa 0,0 l/m 3,1 km/h (1 Bft) S 180 6,3 C 9,0 C 6,0 km/h (2 Bft)
25.06.2013 22:50 9,0 C 84 % 1026,3 hPa 0,0 l/m 2,6 km/h (1 Bft) S 180 6,4 C 9,0 C 2,6 km/h (1 Bft)
25.06.2013 22:55 9,0 C 84 % 1026,3 hPa 0,0 l/m 2,7 km/h (1 Bft) S 180 6,4 C 9,0 C 3,7 km/h (1 Bft)
25.06.2013 23:00 9,0 C 83 % 1026,3 hPa 0,0 l/m 2,9 km/h (1 Bft) S-SO 157 6,3 C 9,0 C 3,1 km/h (1 Bft)
25.06.2013 23:05 9,0 C 83 % 1026,3 hPa 0,0 l/m 2,6 km/h (1 Bft) S 180 6,3 C 9,0 C 1,6 km/h (1 Bft)
25.06.2013 23:10 9,1 C 83 % 1026,3 hPa 0,0 l/m 1,9 km/h (1 Bft) O-SO 112 6,4 C 9,0 C 0,0 km/h (0 Bft)
25.06.2013 23:15 9,0 C 83 % 1026,3 hPa 0,0 l/m 1,8 km/h (1 Bft) SO 135 6,3 C 9,1 C 2,9 km/h (1 Bft)
25.06.2013 23:20 9,1 C 83 % 1026,3 hPa 0,0 l/m 2,4 km/h (1 Bft) S 180 6,4 C 9,0 C 3,2 km/h (1 Bft)
25.06.2013 23:25 9,1 C 83 % 1026,0 hPa 0,0 l/m 2,4 km/h (1 Bft) W-SW 247 6,4 C 9,0 C 3,1 km/h (1 Bft)
25.06.2013 23:30 9,0 C 83 % 1026,0 hPa 0,0 l/m 2,7 km/h (1 Bft) SW 225 6,3 C 9,0 C 5,3 km/h (1 Bft)
25.06.2013 23:35 9,0 C 84 % 1026,0 hPa 0,0 l/m 3,2 km/h (1 Bft) S 180 6,4 C 8,8 C 4,8 km/h (1 Bft)
25.06.2013 23:40 8,8 C 85 % 1026,0 hPa 0,0 l/m 3,1 km/h (1 Bft) S-SW 202 6,4 C 8,5 C 2,1 km/h (1 Bft)
25.06.2013 23:45 8,7 C 85 % 1026,7 hPa 0,0 l/m 3,2 km/h (1 Bft) S-SO 157 6,3 C 8,4 C 3,1 km/h (1 Bft)
25.06.2013 23:50 8,6 C 85 % 1026,7 hPa 0,0 l/m 2,6 km/h (1 Bft) O 90 6,2 C 8,3 C 2,9 km/h (1 Bft)
25.06.2013 23:55 8,4 C 87 % 1026,7 hPa 0,0 l/m 1,6 km/h (1 Bft) SO 135 6,4 C 8,1 C 3,2 km/h (1 Bft)
_ Min-Zeit 06:05 15:45 05:40 - 03:50 - - 16:15 00:05 23:10
Minimum _ 8,2 C 52 % 1023,6 hPa - 0,3 km/h (0 Bft) - - 4,9 C 6,3 C 0,0 km/h (0 Bft)
_ Max-Zeit 15:40 08:55 23:55 11:20 15:55 - - 11:30 15:45 15:50
Maximum _ 16,2 C 96 % 1026,7 hPa 0,7 l/m 9,2 km/h
S-SO (2 Bft)
- - 11,6 C 17,1 C 19,2 km/h
S-SO (3 Bft)
Durchschnitt _ 10,0 C 86 % 1025,0 hPa #3,4 l/m 4,2 km/h (1 Bft) S - 7,7 C 10,0 C 5,4 km/h (1 Bft)